Regional Weather Roundup
Issued by NWS

Home | Current Version | Previous Version | Graphics & Text | Print | Product List | Glossary On
Versions: 1 2 3 4 5 6 7 8 9 10 11 12 13 14 15 16 17 18 19 20 21 22 23 24 25 26 27 28 29 30 31 32 33 34 35 36 37 38 39 40 41 42 43 44 45 46 47 48 49 50
000
ASUS45 KCYS 260910
RWRWY

WYOMING REGIONAL WEATHER ROUNDUP
NATIONAL WEATHER SERVICE CHEYENNE WY
300 AM MDT SAT MAY 26 2018

NOTE:  "FAIR" INDICATES FEW OR NO CLOUDS BELOW 12,000 FEET
WITH NO SIGNIFICANT WEATHER AND/OR OBSTRUCTIONS TO VISIBILITY.

WYZ001-261000-
YELLOWSTONE NATIONAL PARK

CITY           SKY/WX    TMP DP  RH WIND       PRES   REMARKS
LK YELLOWSTONE   N/A     41  39  93 NW3       30.07S
W YELLOWSTONE  NOT AVBL

$$
WYZ002>013-054>058-071-098>099-261000-
NORTHERN WYOMING

CITY           SKY/WX    TMP DP  RH WIND       PRES   REMARKS
JACKSON        FAIR      45  40  82 W7        29.98S
CODY           FAIR      54  46  74 S5        29.88F
GREYBULL       FAIR      59  47  64 SE7       29.80F
WORLAND        FAIR      51  48  89 CALM      29.81F
SHERIDAN       FAIR      52  49  89 CALM      29.84F
BUFFALO        FAIR      59  47  64 SW6       29.91F
GILLETTE       FAIR      57  51  80 S12       29.88F
NEWCASTLE      FAIR      55  46  71 NW3       29.91S

$$
WYZ014>020-022>026-101>103-261000-
CENTRAL WYOMING

CITY           SKY/WX    TMP DP  RH WIND       PRES   REMARKS
BIG PINEY      FAIR      43  36  76 N3        30.00S
PINEDALE       FAIR      50  30  46 S9        30.01S
DUBOIS         FAIR      45  36  70 W12       30.00F
LANDER         FAIR      53  44  71 S3        29.87F
RIVERTON       FAIR      55  43  63 CALM      29.88F
CASPER         FAIR      49  46  90 NE3       29.91F
DOUGLAS        FAIR      57  53  86 E12       29.91F

$$
WYZ021-027>030-104>119-261000-
SOUTHERN WYOMING

CITY           SKY/WX    TMP DP  RH WIND       PRES   REMARKS
EVANSTON       FAIR      56  32  40 SW5       30.01S
FORT BRIDGER   FAIR      55  16  21 W9        30.03S
ROCK SPRINGS   FAIR      61  10  13 CALM      29.99F
DIXON          FAIR      42  29  59 CALM      30.04F
RAWLINS        FAIR      54  17  23 SE7       30.02S
SARATOGA       FAIR      52  27  37 S6        30.06S
LARAMIE        FAIR      49  33  54 S7        30.06F
CHEYENNE       FAIR      51  44  77 W8        30.00F
TORRINGTON     FAIR      56  52  86 E6        29.88F
PINE BLUFFS    FAIR      61  46  59 S10       29.95F

$$



USA.gov is the U.S. government's official web portal to all federal, state and local government web resources and services.